GW0194 Weather Reports


time (UTC)temp
C
wind
direction
speed
KPH
gust
KPH
rain 1hr
cm
rain 24hr
cm
rain mn
cm
humidity
%
barometer
mb
20260906223036 29 0 0.0 1.6 0.00 0.00 0.00 42 1016.4
20260906221536 30 0 0.0 4.8 0.00 0.00 0.00 39 1016.4
20260906220037 29 0 0.0 3.2 0.00 0.00 0.00 39 1016.8
20260906214535 30 1 0.0 6.4 0.00 0.00 0.00 38 1016.9
20260906213034 30 110 1.6 8.0 0.00 0.00 0.00 37 1017.2
20260906211537 30 0 1.6 8.0 0.00 0.00 0.00 37 1017.3
20260906210036 30 32 0.0 4.8 0.00 0.00 0.00 39 1017.7
20260906204546 29 4 0.0 6.4 0.00 0.00 0.00 38 1017.8
20260906203036 28 0 0.0 1.6 0.00 0.00 0.00 41 1018.0
20260906201549 29 37 1.6 12.9 0.00 0.00 0.00 37 1018.2
20260906200036 29 245 0.0 9.7 0.00 0.00 0.00 38 1018.0
20260906194535 28 0 3.2 12.9 0.00 0.00 0.00 36 1018.3
20260906193033 28 41 4.8 11.3 0.00 0.00 0.00 44 1018.5
20260906191534 28 6 3.2 9.7 0.00 0.00 0.00 46 1018.7
20260906190037 27 23 3.2 16.1 0.00 0.00 0.00 46 1018.9
20260906184536 27 23 6.4 11.3 0.00 0.00 0.00 43 1019.2
20260906183036 27 33 1.6 9.7 0.00 0.00 0.00 47 1019.6
20260906181536 27 340 3.2 12.9 0.00 0.00 0.00 55 1019.8
20260906180054 26 107 1.6 11.3 0.00 0.00 0.00 50 1020.0
20260906174538 26 117 3.2 6.4 0.00 0.00 0.00 48 1020.3
20260906173034 25 49 1.6 8.0 0.00 0.00 0.00 48 1020.7
20260906171536 25 74 1.6 6.4 0.00 0.00 0.00 50 1021.0
20260906170036 25 60 1.6 4.8 0.00 0.00 0.00 53 1021.0
20260906164535 23 46 1.6 4.8 0.00 0.00 0.00 52 1021.2
20260906163033 23 0 1.6 6.4 0.00 0.00 0.00 62 1021.3
20260906161543 22 39 1.6 4.8 0.00 0.00 0.00 63 1021.3
20260906160038 22 35 1.6 6.4 0.00 0.00 0.00 62 1021.3
20260906154543 22 49 1.6 4.8 0.00 0.00 0.00 66 1021.2
20260906153037 21 0 1.6 4.8 0.00 0.00 0.00 69 1021.2
20260906151536 20 0 0.0 4.8 0.00 0.00 0.00 73 1021.4
20260906150053 20 37 0.0 4.8 0.00 0.00 0.00 75 1021.4
20260906144536 19 43 0.0 1.6 0.00 0.00 0.00 77 1021.4
20260906143034 18 46 0.0 4.8 0.00 0.00 0.00 76 1021.5
20260906141535 20 46 1.6 6.4 0.00 0.00 0.00 74 1021.3
20260906140039 19 0 0.0 0.0 0.00 0.00 0.00 70 1021.3
20260906134534 17 0 0.0 0.0 0.00 0.00 0.00 74 1021.3
20260906133036 16 0 0.0 0.0 0.00 0.00 0.00 77 1021.3
20260906131538 15 0 0.0 0.0 0.00 0.00 0.00 79 1021.3
20260906130047 13 0 0.0 0.0 0.00 0.00 0.00 81 1021.3
20260906124536 13 0 0.0 0.0 0.00 0.00 0.00 82 1021.1
20260906123041 13 0 0.0 0.0 0.00 0.00 0.00 79 1020.8
20260906121538 13 0 0.0 0.0 0.00 0.00 0.00 79 1021.0
20260906120037 13 0 0.0 0.0 0.00 0.00 0.00 80 1020.8
20260906114539 13 0 0.0 1.6 0.00 0.00 0.00 81 1020.8
20260906113034 13 0 0.0 0.0 0.00 0.00 0.00 80 1020.7
20260906111546 14 0 0.0 1.6 0.00 0.00 0.00 76 1020.6
20260906110036 13 0 0.0 0.0 0.00 0.00 0.00 77 1020.5
20260906104541 13 0 0.0 0.0 0.00 0.00 0.00 76 1020.7
20260906103046 13 0 0.0 0.0 0.00 0.00 0.00 75 1020.6
20260906101536 14 0 0.0 3.2 0.00 0.00 0.00 73 1020.7
20260906100036 15 166 0.0 1.6 0.00 0.00 0.00 72 1020.8
20260906094546 15 0 0.0 3.2 0.00 0.00 0.00 71 1020.6
20260906093039 15 0 0.0 1.6 0.00 0.00 0.00 68 1020.6
20260906091538 16 0 0.0 1.6 0.00 0.00 0.00 65 1020.4
20260906090038 17 0 0.0 1.6 0.00 0.00 0.00 65 1020.1
20260906084535 16 0 0.0 1.6 0.00 0.00 0.00 65 1020.0
20260906083033 16 222 0.0 1.6 0.00 0.00 0.00 68 1019.9
20260906081539 15 0 0.0 0.0 0.00 0.00 0.00 68 1019.8
20260906080038 17 0 0.0 1.6 0.00 0.00 0.00 64 1019.9
20260906074538 17 0 0.0 0.0 0.00 0.00 0.00 64 1019.9
20260906073036 18 0 0.0 0.0 0.00 0.00 0.00 62 1020.0
20260906071534 18 0 0.0 0.0 0.00 0.00 0.00 60 1020.0
20260906070038 19 239 0.0 1.6 0.00 0.00 0.00 58 1019.8
20260906064535 20 0 0.0 0.0 0.00 0.00 0.00 56 1019.8
20260906063044 20 28 0.0 1.6 0.00 0.00 0.00 53 1019.9
20260906061539 21 0 0.0 1.6 0.00 0.00 0.00 51 1020.0
20260906060036 22 0 0.0 3.2 0.00 0.00 0.00 46 1019.8
20260906054550 23 0 0.0 1.6 0.00 0.00 0.00 44 1019.8
20260906053034 22 248 0.0 3.2 0.00 0.00 0.00 43 1020.4
20260906051537 21 0 0.0 3.2 0.00 0.00 0.00 46 1020.6
20260906050040 21 0 0.0 1.6 0.00 0.00 0.00 49 1020.2
20260906044537 21 0 0.0 1.6 0.00 0.00 0.00 54 1019.7
20260906043033 20 252 0.0 1.6 0.00 0.00 0.00 52 1019.9
20260906041537 21 0 0.0 3.2 0.00 0.00 0.00 52 1019.6
20260906040045 22 0 0.0 1.6 0.00 0.00 0.00 47 1019.3
20260906034547 22 0 0.0 1.6 0.00 0.00 0.00 46 1019.1
20260906033036 22 0 0.0 6.4 0.00 0.00 0.00 47 1018.7
20260906031601 22 118 0.0 1.6 0.00 0.00 0.00 47 1018.7
20260906030039 23 269 0.0 1.6 0.00 0.00 0.00 42 1018.4
20260906024554 23 0 0.0 0.0 0.00 0.00 0.00 40 1018.0
20260906023043 25 0 0.0 1.6 0.00 0.00 0.00 37 1018.0
20260906021538 26 0 0.0 0.0 0.00 0.00 0.00 33 1017.8
20260906020039 27 0 0.0 6.4 0.00 0.00 0.00 32 1017.8
20260906014535 27 335 1.6 19.3 0.00 0.00 0.00 31 1017.9
20260906013034 27 0 0.0 6.4 0.00 0.00 0.00 33 1017.7
20260906011535 27 235 0.0 4.8 0.00 0.00 0.00 32 1017.7
20260906010048 27 200 0.0 3.2 0.00 0.00 0.00 32 1017.7
20260906004540 28 234 0.0 4.8 0.00 0.00 0.00 32 1017.9
20260906003034 28 221 0.0 6.4 0.00 0.00 0.00 30 1017.8
20260906001537 29 165 1.6 9.7 0.00 0.00 0.00 31 1017.8
20260906000046 30 0 0.0 1.6 0.00 0.00 0.00 34 1017.7
20260905234542 28 0 0.0 0.0 0.00 0.00 0.00 42 1017.7
20260905233035 28 0 0.0 0.0 0.00 0.00 0.00 40 1017.5
20260905231538 29 0 0.0 0.0 0.00 0.00 0.00 38 1017.5
20260905230037 30 0 0.0 1.6 0.00 0.00 0.00 35 1017.4
20260905224536 30 0 0.0 9.7 0.00 0.00 0.00 30 1017.3